CSIM (43793 NORAD) Tracking and Keplerian Element Data

This shows tracking and keplerian element data for the satellite.

Feedback or suggestion? Click here.




ElementValue
Catalog43793
NameCSIM
Epoch Orbit645
Epoch Day17.78118265
Epoch Year2019
RAAN91.4809
Inclination97.7572
Eccentricity0.0014432
Argument of Perigee114.2936
Mean Anonmoly245.9794
Mean Motion14.95520214
Decay Rate-4.8E-07
L11 43793U 18099AM 19017.78118265 -.00000048 00000-0 87618-6 0 9998
L22 43793 97.7572 91.4809 0014432 114.2936 245.9794 14.95520214 6454

Live tracking and technical data element details for CSIM (NORAD 43793). CSIM can be tracked NOW for your location showing map with azimuth and elevation plus other details from your city location.

Track the satellite on the map from your city or location and see movement details for azimuth, elevation, latitude, longitude, range, height, and movement on the map or in text.







IsCatalogInMostPopularTable: catalog: 43793, numindb: 21
Update: records affected: 1



GetName: 43793 CSIM

Hit Count: updated at: Wed, 23 Jan 2019 02:41:28 GMT